673  
ASUS46 KPDT 031910  
RWRPDT  
PENDLETON REGIONAL WEATHER ROUNDUP  
NATIONAL WEATHER SERVICE PENDLETON OREGON  
1200 PM PDT THU SEP 3 2015  
 
NOTE: FAIR INDICATES FEW OR NO CLOUDS BELOW 12,000 FEET WITH NO  
SIGNIFICANT WEATHER AND/OR S TO VISIBILITY
.  
 
# INDICATES UNOFFICIAL STATION AND DATA  
 
WAZ520-032010-  
EAST SLOPES OF WASHINGTON CASCADES  
 
CITY SKY/WX TMP DP RH WIND PRES REMARKS
 
#BULLFROG 2SW N/A 54 39 57 N7 27.58F  
#CLE ELUM HS N/A 55 38 53 W7 29.94F  
#CLE ELUM LAKE N/A 52 41 66 W1 29.93F  
#CLIFFDEL 2NW N/A 55 35 47 NW2 N/A  
#GLENWOOD N/A 60 42 51 SW7 29.97F  
#MANASTASH CYN N/A 57 34 42 CALM 29.93F  
#NELSON 3SW N/A 53 38 57 CALM 30.16S  
#NILE N/A 59 37 44 W3 29.21F  
#PEOH POINT N/A 48 37 65 W3 N/A  
#RONALD 2NW N/A 54 36 50 W3 29.86S  
#SNOWDEN N/A 57 28 33 NW2 N/A  
#TEANAWAY 4NE N/A 59 42 53 W3 N/A  
#TROUT LAKE 1NE N/A 58 39 49 NW12 29.98F  

 
 
WAZ521-032010-  
SIMCOE HIGHLANDS  
 
CITY SKY/WX TMP DP RH WIND PRES REMARKS
 
#BICKLETON HS N/A 57 27 31 SW5 N/A  
#CENTERVILLE 4W N/A 61 39 44 CALM 29.73F  
#CENTERVILLE 1SWN/A 60 37 42 W13 29.93F  
#GOLDENDALE N/A 60 38 44 W12 N/A  
#GOLDENDALE 1NE N/A 60 28 29 SW7 N/A  
#GOLDENDALE 5WNWN/A 60 40 47 W10 29.94F  
#GOODNOE HILLS N/A 64 39 40 SW21 N/A  
#LYLE 6NE N/A 58 39 49 SW7 29.95F  

 
 
WAZ026-032010-  
KITTITAS VALLEY  
 
CITY SKY/WX TMP DP RH WIND PRES REMARKS
 
ELLENSBURG AP SUNNY 65 35 33 NW21G28 29.95F  
#ELLENSBURG CWU N/A 60 37 42 N15 29.88F  
#ELLENSBURG 3NE N/A 58 38 47 N12 29.95F  
#ELLENSBURG 1E N/A 61 37 41 NW1 N/A  
#KITTITAS 4N N/A 61 38 42 N9 29.94F  
#KITTITAS 3S N/A 60 43 53 NW7 29.92S  
#THORP 6N N/A 55 38 53 NW18G26 29.95F  

 
 
WAZ027-032010-  
YAKIMA VALLEY  
 
CITY SKY/WX TMP DP RH WIND PRES REMARKS
 
SUNNYSIDE AP SUNNY 63 36 36 W3 29.97F  
YAKIMA AIRPORT SUNNY 68 33 27 S8 29.96F  
YAKIMA-VAGABOND SUNNY 64 33 31 SW9 29.95F  
#DONALD 2NE N/A 71 11 10 SE1 28.81F  
#GRANDVIEW N/A 64 36 35 CALM 29.96F  
#MABTON N/A 64 44 48 NE1 29.96F  
#MOXEE 2E N/A 63 5 10 SW9 29.89F  
#NACHES 2SW N/A 62 39 43 NW1 29.97S  
#TERRACE HTS N/A 65 39 38 S2 29.90F  
#WAPATO 4NE N/A 71 11 10 SE1 28.81F  
#W YAKIMA N/A 64 38 38 S1 29.93F  
#WHITE SWAN 5E N/A 63 39 41 NE5 29.95F  
#WILEY CITY 3W N/A 65 25 22 CALM 29.92F  

 
 
WAZ028-032010-  
LOWER COLUMBIA BASIN...WASHINGTON  
 
CITY SKY/WX TMP DP RH WIND PRES REMARKS
 
PASCO SUNNY 67 39 36 VRB3 29.96F  
#BENTON CITY N/A 64 37 37 W3 29.86F  
#CONNELL 5N N/A 65 38 37 W6 29.93F  
#CONNELL 5NW N/A 63 41 44 SW10 29.91S  
#ELTOPIA 6NW N/A 63 42 46 S2 28.93F  
#KAHLOTUS N/A 62 37 39 NW7 29.93F  
#KENNEWICK N/A 54 39 57 N7 27.58F  
#KENNEWICK 3S N/A 67 44 43 S2 29.95F  
#PASCO-BROADMOORN/A 73 41 31 SW1 29.84F  
#PATERSON N/A 64 41 43 W5 29.95F  
#PROSSER N/A 63 35 35 NW3 29.95F  
#SAGEMOOR 2W N/A 66 43 43 CALM 29.79F  
#TOUCHET 2S N/A 67 44 43 NW8 29.94F  
#WEST PASCO N/A 69 47 45 S2 29.94F  

 
 
WAZ029-032010-  
FOOTHILLS OF THE BLUES...WASHINGTON  
 
CITY SKY/WX TMP DP RH WIND PRES REMARKS
 
WALLA WALLA AP MOSUNNY 65 38 37 SW9 29.97F  
#DAYTON SCHOOL N/A 62 35 36 NE6 29.97F  
#LOWDEN 2SE N/A 66 43 43 W8 29.93F  
#PLEASANT VIEW 1N/A 64 40 41 S6 29.97F  
#PRESCOTT N/A 66 43 43 S3 29.94F  
#SUDBURY N/A 68 N/A N/A CALM N/A  
#WHITMAN COLLEGEN/A 63 42 46 S7 30.01S  
#WAITSBURG 8N N/A 64 23 21 S9 29.82S  
#WALLA WALLA U N/A 66 41 40 CALM 29.95F  
#WHITMAN MISSIONN/A 65 41 41 W6 29.96F  

 
 
WAZ030-032010-  
BLUE MOUNTAINS...WASHINGTON  
 
CITY SKY/WX TMP DP RH WIND PRES REMARKS
 
#DIXIE 5SE N/A 54 40 59 SW12 29.92F  
#SKI BLUEWOOD N/A 51 35 54 E5 29.97F  

 
 
ORZ009-041-WAZ024-032010-  
COLUMBIA RIVER GORGE  
 
CITY SKY/WX TMP DP RH WIND PRES REMARKS
 
THE DALLES AP SUNNY 68 39 35 W22G30 29.98F  
#ARLINGTON AIRPON/A 64 39 40 W14 29.82F  
#CELILO DOT N/A 67 46 47 SW7 N/A  
#MOSIER 1S N/A 64 34 33 N13 30.02S  
#RUFUS DOT N/A 66 42 42 W18 N/A  
 

 
 
ORZ510-032010-  
NORTH CENTRAL OREGON  
 
CITY SKY/WX TMP DP RH WIND PRES REMARKS
 
#CHENOWITH 1W N/A 58 40 51 NW21 N/A  
#DUFUR 9E N/A 54 40 59 N10 30.03S  
#GRASS VALLEY 1SN/A 59 38 45 NW7 30.00F  
#KENT DOT N/A 56 34 43 N8 N/A  
#MAUPIN SCHOOL N/A 64 40 41 N1 29.99F  
#MORO SCHOOL N/A 59 46 62 NW8 30.00F  
#SHANIKO 5WSW N/A 55 34 45 SW7 N/A  
#SHANIKO 4NW N/A 52 32 46 W8 30.01S  
#TYGH VALLEY 2NEN/A 63 42 46 S2 29.97F  
#WAPANITIA AIRPON/A 61 38 42 NE5 29.97F  
#WASCO DOT N/A 63 40 43 W16 N/A  

 
 
ORZ511-032010-  
CENTRAL OREGON  
 
CITY SKY/WX TMP DP RH WIND PRES REMARKS
 
BEND AIRPORT PTCLDY 54 32 43 N5 30.00F  
PRINEVILLE AP MOCLDY 55 32 41 NW9 30.00F  
REDMOND AIRPORT MOCLDY 59 32 36 VRB6 30.00F  
#BEND 1SW N/A 56 31 38 E3 N/A  
#BEND-AWBREY N/A 56 37 49 N5 29.95F  
#BEND-KIM LN N/A 57 38 49 N1 29.97F  
#CULVER N/A 58 38 47 NE2 29.96F  
#LAKE BILLY CHINN/A 60 -4 7 CALM 30.06F  
#MADRAS N/A 58 37 45 N5 N/A  
#POWELL BUTTE 3EN/A 54 38 55 NW3 N/A  
#POWELL BUTTE N/A 58 40 51 W1 29.63F  
#PRINEVILLE 3N N/A 58 37 45 W6 29.92F  
#WARM SPRINGS N/A 61 41 48 CALM 29.97F  
 

 
 
 
ORZ509-032010-  
EAST SLOPES OF OREGON CASCADES  
 
CITY SKY/WX TMP DP RH WIND PRES REMARKS
 
#BLUE BOX PASS N/A 45 -7 11 NW1 N/A  
#CAMP SHERMAN N/A 61 35 38 SW1 29.96F  
#LA PINE 4NW N/A 53 33 46 NW1 30.01F  
#LAVA BUTTE DOT N/A 57 27 31 CALM N/A  
#SISTERS 3N N/A 58 35 42 N6 30.05S  
#SUNRIVER N/A 56 33 42 W3 29.85F  
 

 
 
ORZ044-032010-  
LOWER COLUMBIA BASIN...OREGON  
 
CITY SKY/WX TMP DP RH WIND PRES REMARKS
 
HERMISTON SUNNY 67 38 34 W12 29.97F  
#BOARDMAN SCHOOLN/A 66 40 38 W2 29.97F  
#ECHO 8SW N/A 66 37 34 W7 29.98S  
#IONE SCHOOL N/A 62 35 36 SW6 29.95F  
#IRRIGON 4NW N/A 67 40 37 W6 N/A  
#UMATILLA SCHOOLN/A 66 49 54 N3 29.98S  
#UMATILLA N/A 67 41 39 N2 29.88F  

 
 
ORZ507-032010-  
NORTHERN FOOTHILLS OF THE BLUES  
 
CITY SKY/WX TMP DP RH WIND PRES REMARKS
 
PENDLETON AIRPT PTCLDY 64 34 33 W14G26 29.97F  
#ADAMS 3WNW N/A 63 35 35 SW10 29.95F  
#ATHENA N/A 61 36 39 SW5 29.97F  
#CAYUSE N/A 61 36 39 W12 29.95F  
#HELIX SCHOOL N/A 61 37 41 SW10 29.95F  
#HELIX 3N N/A 60 37 42 N15 29.95F  
#HELIX 6SW N/A 60 37 42 SW9 29.97F  
#HOLDMAN 5SE N/A 62 39 43 W10 29.98F  
#HOLDMAN 6E N/A 61 37 41 NE13 29.76F  
#M-F GROVE ELEM N/A 64 33 31 SW7 29.96F  
#M-FREEWATER 5SEN/A 63 41 44 W7 29.97F  
#PENDLETON DNTN N/A 69 38 32 NW3 30.01S  
#PDT AQUATIC CTRN/A 64 40 41 W9 29.94S  
#PDT SUNRIDGE N/A 63 37 38 W7 29.99F  
#PENDLETON 7NW N/A 66 43 43 W13 32.07S  
#PILOT ROCK N/A 64 36 35 W1 29.99F  
#TUTUILLA N/A 66 38 36 W7 29.96F  
#UMAPINE 2E N/A 66 42 42 SW6 29.93F  
#WESTON SCHOOL N/A 59 31 34 N6 29.90F  
 

 
 
ORZ508-032010-  
SOUTHERN FOOTHILLS OF THE BLUES  
 
CITY SKY/WX TMP DP RH WIND PRES REMARKS
 
#AJAX N/A 58 33 39 S7 29.93F  
#CONDON 5W N/A 53 34 48 W7 29.97F  
#FOSSIL SCHOOL N/A 66 51 58 CALM 29.94S  
#HEPPNER EOC N/A 59 38 45 N7 29.89F  
#HEPPNER 4NE N/A 57 37 47 W10 29.95F  
#LEXINGTON 2SE N/A 63 38 39 N3 29.95F  
#OLEX 4N N/A 63 36 36 SW14 29.97F  
#RUGGS 5NE N/A 56 35 45 W7 30.17S  
#RUGGS 2SW N/A 57 37 47 NW7 29.97F  
 

 
 
ORZ502-503-032010-  
BLUE MOUNTAINS  
 
CITY SKY/WX TMP DP RH WIND PRES REMARKS
 
MEACHAM MOCLDY 56 34 43 CALM 29.99F  
#HEPPNER 15SE N/A 50 38 63 NW7 29.90S  
#LONG CREEK HS N/A 53 38 57 CALM 29.95F  
#PIKES PEAK N/A 50 37 61 SW13 27.99S  
#TROY SCHOOL N/A 65 44 46 E3 29.75F  
#UKIAH N/A 53 36 52 CALM 29.99F  
#WESTON 4E N/A 55 37 51 SW6 29.91F  

 
 
ORZ505-032010-  
JOHN DAY BASIN  
 
CITY SKY/WX TMP DP RH WIND PRES REMARKS
 
JOHN DAY PTCLDY 58 36 44 W5 29.99F  
#JOHN DAY KJDY N/A 61 57 87 N1 30.05F  
#MITCHELL N/A 60 42 51 CALM 30.15F  
#MITCHELL 8NW N/A 57 36 45 CALM 30.15F  
#MONUMENT HS N/A 62 32 32 NW3 29.99F  
#MT. VERNON 5SE N/A 55 35 47 CALM 29.95F  
#SPRAY SCHOOL N/A 65 N/A N/A W1 N/A  

 
 
ORZ506-032010-  
OCHOCO AND JOHN DAY HIGHLANDS  
 
CITY SKY/WX TMP DP RH WIND PRES REMARKS
 
#PAULINA SCHOOL N/A 58 31 36 W2 29.95F  
#PINE MTN OBS N/A 45 32 60 NW1 N/A  
#PRAIRIE CITY N/A 60 41 49 W3 29.92F  
#SENECA N/A 52 N/A N/A N3 N/A  
#SENECA 9NW N/A 52 36 54 NE2 29.88F  

 
 
ORZ049-032010-  
GRANDE RONDE VALLEY  
 
CITY SKY/WX TMP DP RH WIND PRES REMARKS
 
LA GRANDE MOCLDY 61 32 33 N7 29.96F  
#COVE N/A 59 45 60 N2 29.99F  
#COVE SCHOOL N/A 59 40 49 CALM 30.00F  
#ELGIN 3N N/A 59 34 39 CALM 29.94F  
#ELGIN 1E N/A 59 39 47 CALM N/A  
#ISLAND CITY 4N N/A 64 47 54 CALM 30.03F  
#LADD CYN DOT N/A 60 39 46 N6 N/A  
#LA GRANDE ELEM N/A 59 38 45 W3 29.98F  
#UNION 1S N/A 60 42 51 N6 29.83F  

 
 
ORZ050-032010-  
WALLOWA COUNTY  
 
CITY SKY/WX TMP DP RH WIND PRES REMARKS
 
#ENTERPRISE HS N/A 51 42 71 W1 30.01S  
#IMNAHA SCHOOL N/A 60 43 53 S1 29.96F  
#IMNAHA 10S N/A 55 43 64 NE1 29.98F  
#JOSEPH 3N N/A 51 38 61 CALM 30.01S  
#JOSEPH 3W N/A 48 43 83 CALM 29.84S  
#LOSTINE N/A 55 42 61 VRB1 29.73F  
#MT HOWARD 8000 N/A 33 32 96 CALM 30.02R  
#PROMISE 1S N/A 54 37 52 E2 30.02S  
#WALLOWA SCHOOL N/A 58 40 51 CALM 29.95F  
 

 
 
CLICK HERE TO GO TO PREVIOUS BULLETINS.

The Nexlab OR Page
The Nexlab WA Page Main Text Page